Theta_e
354 357 365 363 365 369 370 369 367 365 361 362 363 363 363 363 364 365 366 366 366 365 365 366 365 365 365 361 362 363 364 364 364 362 360 359 360 360 361 360 364 355 360
355 356 365 366 366 368 369 369 367 366 365 363 363 362 362 363 363 364 364 364 364 364 364 365 363 364 365 365 364 363 362 361 361 360 359 364 362 360 360 361 364 359 360
355 357 360 365 366 366 369 369 368 365 364 364 363 363 362 362 363 363 363 364 364 364 364 363 362 362 363 364 364 363 361 361 359 357 360 354 361 360 360 361 360 358 360
355 357 358 365 366 365 366 368 368 365 363 363 363 362 362 362 362 362 362 363 363 363 363 363 364 362 360 360 361 362 363 364 358 358 357 352 354 362 362 361 359 360 360
356 357 361 366 367 364 364 364 366 367 363 362 362 362 362 361 361 361 361 362 361 361 361 362 363 363 364 362 362 361 361 362 360 356 354 359 353 357 360 360 358 360 361
356 357 363 365 364 364 363 363 363 364 363 362 361 361 362 362 361 360 360 361 361 360 359 359 361 361 362 362 362 361 360 359 360 355 354 353 354 358 356 356 356 359 360
353 357 362 366 364 364 363 363 363 363 362 362 361 361 360 360 359 359 360 361 361 360 360 358 357 358 356 356 357 360 361 357 355 356 357 353 356 358 356 356 356 356 357
353 355 360 364 365 363 363 363 363 363 362 362 361 361 360 359 359 359 358 359 359 356 355 357 358 357 354 356 356 354 357 360 351 352 353 354 357 357 357 356 355 355 355
353 353 358 359 362 362 361 362 362 365 362 362 362 361 360 360 360 362 361 361 360 360 359 357 357 357 355 355 355 355 355 356 355 351 349 350 355 357 357 358 356 355 355
353 353 356 358 358 360 359 361 362 363 362 362 361 361 360 362 362 360 360 359 359 359 358 359 359 357 357 356 356 356 356 356 354 354 352 350 351 354 358 358 361 358 356
352 354 353 354 355 357 355 358 362 361 362 361 361 362 364 358 359 359 357 356 357 358 357 358 357 357 357 357 356 356 357 356 357 355 351 350 348 351 358 358 361 362 361
350 354 355 352 351 354 352 357 359 358 358 358 362 363 361 359 359 358 358 359 352 357 358 354 355 354 357 352 356 357 355 357 356 352 352 352 350 350 357 358 362 362 362
351 353 356 358 355 353 353 355 355 355 356 356 363 367 367 362 359 357 359 360 352 349 355 353 353 351 351 353 353 353 353 353 352 350 350 351 352 352 355 359 360 362 362
350 352 354 359 360 358 355 355 356 356 358 357 364 364 370 359 359 357 354 357 359 363 356 355 355 355 353 353 353 351 351 352 351 351 352 353 352 353 355 357 358 361 361
350 352 355 358 361 364 364 357 365 363 358 357 358 358 357 355 354 358 359 365 357 360 360 360 356 354 353 353 352 353 352 351 353 353 353 356 354 355 354 356 356 358 361
351 352 355 357 360 362 362 363 365 361 359 358 357 358 361 357 355 355 362 356 357 357 362 353 361 359 356 352 350 352 353 354 357 355 354 357 356 356 356 356 357 357 359
352 354 355 357 358 361 362 362 362 358 357 356 357 361 362 362 360 363 371 359 364 361 355 353 356 359 357 354 352 350 352 354 354 357 357 355 356 357 358 360 360 361 361
354 355 357 355 356 359 360 361 358 357 356 357 357 359 362 364 365 364 360 365 364 362 367 362 353 361 361 359 352 351 352 354 355 356 357 357 356 355 358 361 363 362 360
356 357 358 356 355 357 361 360 360 360 358 358 359 358 362 363 364 363 359 363 365 365 359 361 360 358 360 358 356 352 352 353 353 352 353 357 356 356 355 361 362 363 362
354 359 360 358 357 360 359 360 356 356 358 366 363 360 363 367 365 365 361 364 363 368 357 357 357 357 355 359 353 351 352 353 353 351 352 353 354 356 356 358 360 359 363
356 357 359 359 359 358 356 353 352 353 356 364 361 363 365 365 365 366 363 364 360 362 361 360 358 357 354 356 353 350 351 353 352 352 352 352 353 354 355 357 357 355 359
355 358 360 361 361 360 357 357 354 355 357 363 361 362 366 363 362 363 364 361 362 356 362 362 361 359 356 354 355 354 349 348 349 351 351 351 352 352 353 355 357 358 358
352 356 358 362 363 363 363 360 358 359 361 364 358 360 362 363 363 366 364 364 362 361 363 361 360 360 350 354 356 350 343 341 351 352 352 353 353 351 351 353 355 359 361
351 355 358 361 363 363 365 362 363 356 359 361 366 357 361 362 360 361 363 364 367 358 361 360 356 364 360 352 356 352 351 356 349 342 346 348 355 356 355 353 353 357 361
349 351 356 360 362 363 362 362 359 361 363 355 353 360 362 359 362 362 363 365 362 367 364 362 359 361 356 354 359 351 354 350 353 353 350 343 351 348 352 355 355 354 357
349 351 355 358 362 360 359 357 354 353 358 354 354 355 359 356 356 362 363 365 368 364 359 367 365 361 359 357 358 361 351 347 352 348 352 352 343 344 348 352 353 355 356
Wind_Speed
16 18 12 12 12 14 16 15 15 14 14 11 10 11 11 11 12 13 12 13 13 12 13 13 13 14 16 15 15 14 15 16 16 16 16 16 15 14 11 10 14 16 13
20 19 14 13 13 13 14 15 15 15 14 12 11 10 10 10 11 12 12 12 12 11 12 12 13 12 14 15 14 14 14 13 14 14 16 14 15 12 10 13 16 14 14
20 20 17 13 14 14 14 15 15 15 14 13 12 10 10 10 10 10 11 11 10 11 11 11 12 13 12 13 13 13 14 13 13 13 14 10 13 11 12 13 14 13 13
20 19 18 14 14 15 14 14 15 15 14 13 12 11 10 9 10 9 10 9 9 9 10 10 10 12 12 12 12 12 11 13 12 9 7 7 11 12 13 14 12 13 12
19 18 17 15 14 15 14 14 14 14 15 13 13 11 10 9 9 8 8 8 8 7 7 8 9 9 11 11 12 10 10 10 10 7 6 6 10 10 10 11 12 9 9
18 17 20 15 16 15 15 14 14 14 14 13 12 11 9 9 8 7 6 6 7 7 7 5 6 8 8 9 9 10 10 9 11 8 8 6 6 11 9 6 9 10 11
17 15 18 14 15 15 15 15 14 14 13 12 12 11 10 9 7 6 6 6 6 6 7 5 7 8 7 6 5 7 8 7 4 5 5 7 10 9 8 8 8 9 9
15 15 17 15 15 15 15 15 14 13 13 12 11 10 9 8 8 8 8 8 8 7 7 7 8 8 6 7 8 6 6 8 7 5 4 4 11 8 8 8 8 9 9
14 14 14 16 15 15 14 14 14 13 13 12 11 10 9 8 8 8 9 10 10 10 9 8 8 8 7 8 8 8 8 9 8 5 6 5 11 7 9 8 8 8 8
14 14 13 13 14 13 14 14 14 12 12 12 11 10 10 11 10 9 8 8 8 8 9 9 9 8 8 9 11 11 10 9 11 9 7 3 11 9 9 9 10 9 9
13 14 15 14 14 13 12 13 13 13 12 12 11 13 10 10 11 7 4 6 6 7 6 7 7 6 7 9 10 11 10 7 5 9 6 14 10 11 11 11 10 12 11
16 14 14 14 14 12 9 11 11 11 10 10 7 8 9 6 3 3 5 9 2 6 6 5 6 7 9 8 8 9 8 6 8 8 4 12 12 12 12 12 12 11 10
15 12 12 12 12 12 9 8 7 7 7 8 8 9 8 4 8 6 4 2 2 6 6 9 10 8 10 6 7 7 8 6 4 5 7 13 12 13 12 13 12 12 10
16 15 13 12 10 10 8 7 8 7 7 6 8 9 5 6 5 7 4 7 6 3 5 7 3 4 4 7 5 6 7 6 6 4 9 14 13 13 15 14 14 13 13
16 16 15 13 11 8 9 7 4 8 7 7 8 8 8 6 4 4 4 3 5 5 3 4 6 7 6 6 6 6 8 6 4 5 4 17 15 14 15 17 15 15 14
15 16 15 15 13 12 10 7 7 9 6 6 6 6 8 7 5 4 4 6 5 0 4 2 6 5 6 6 7 7 7 6 8 7 7 10 15 14 15 17 18 17 17
14 15 15 14 15 13 12 11 9 7 8 7 7 7 8 8 7 6 6 3 5 5 5 6 7 7 7 7 7 7 7 8 8 8 7 6 12 17 16 17 18 18 18
13 13 14 11 14 15 12 9 8 8 7 7 7 7 9 9 8 7 6 5 5 4 5 7 7 5 6 6 6 7 6 8 9 9 9 7 7 7 16 17 17 17 19
14 13 13 13 14 13 12 9 9 8 7 7 7 7 9 10 10 9 5 5 4 4 4 4 4 6 5 5 6 7 8 7 8 10 11 9 9 7 7 20 19 18 20
12 13 13 13 12 12 9 9 8 8 8 7 8 8 9 8 10 9 9 6 5 5 5 4 4 3 4 4 7 6 7 8 8 9 9 9 11 9 10 6 11 12 19
14 15 14 14 14 12 10 10 10 10 9 8 9 10 10 10 9 10 7 7 7 5 4 5 6 5 5 5 4 8 7 9 9 9 9 9 10 9 10 8 7 6 11
15 15 15 15 14 13 10 9 9 9 9 8 9 10 10 12 10 9 9 7 6 5 4 5 6 4 3 4 2 3 4 6 9 10 8 8 10 9 10 11 10 9 8
16 16 15 15 15 14 14 9 8 8 7 7 8 8 10 12 10 11 11 10 7 7 5 6 6 5 4 4 5 2 2 1 4 3 6 8 9 9 10 10 11 11 11
13 13 13 14 15 14 15 12 14 11 9 7 5 8 4 7 11 10 11 9 8 8 5 6 7 4 6 4 4 7 9 3 3 1 2 4 7 9 11 9 10 11 12
9 8 10 12 11 13 12 12 10 11 8 8 7 10 7 8 9 10 11 9 10 9 7 8 6 6 4 5 5 5 4 6 6 5 6 3 6 6 9 10 11 10 12
6 6 7 8 10 12 14 15 12 8 10 9 7 6 8 6 7 11 11 9 8 9 10 7 7 8 7 6 5 4 5 5 3 6 6 4 5 3 7 3 9 10 6
Wind_Direction
156 148 160 149 143 147 150 147 144 144 152 144 131 125 122 119 115 110 109 107 106 107 108 108 100 114 118 117 110 107 106 107 107 108 104 103 103 101 104 114 137 97 92
156 151 158 148 141 142 147 144 143 147 150 149 139 133 126 120 119 118 116 113 113 112 108 105 109 108 114 122 121 127 117 115 112 112 111 104 102 104 92 71 68 98 100
153 151 161 149 142 140 143 146 144 147 149 148 145 140 132 127 120 118 120 118 119 116 109 110 111 112 110 106 109 111 121 123 116 130 155 119 102 111 99 101 97 100 95
152 153 157 152 147 144 145 146 146 148 148 149 147 145 141 133 123 120 117 116 118 113 116 116 113 124 124 124 127 126 115 114 122 166 152 114 111 104 110 107 109 107 104
153 160 139 154 152 150 148 151 152 154 155 157 153 152 150 141 138 133 123 120 114 110 115 124 134 133 123 131 131 134 125 125 149 189 99 116 125 116 113 117 129 120 105
158 165 134 157 159 161 158 156 158 158 160 161 160 160 161 155 159 149 143 148 142 140 131 130 114 110 117 135 145 145 140 148 195 126 131 124 85 120 130 118 109 109 108
160 161 153 164 162 170 170 168 168 167 169 173 173 173 173 169 177 173 178 176 168 165 163 166 159 148 142 144 146 173 156 173 221 144 143 145 111 137 140 138 136 130 128
158 161 155 167 170 170 179 179 178 179 182 185 189 188 190 191 200 205 199 199 191 193 200 202 200 212 227 235 201 189 196 193 205 178 207 152 115 155 154 153 150 146 139
169 163 161 172 178 176 183 183 188 188 192 195 200 201 202 210 213 212 210 208 215 214 219 224 226 215 221 226 205 212 212 214 258 219 214 204 146 182 171 171 167 162 155
173 166 175 176 179 184 179 189 194 194 198 202 207 210 215 217 224 223 229 228 241 240 227 226 229 225 221 220 221 220 213 215 238 231 219 167 156 194 195 194 182 178 175
180 179 181 180 183 191 184 177 196 202 207 211 216 223 223 235 188 177 228 280 241 262 255 225 215 214 208 209 218 224 216 223 241 236 203 123 164 202 208 202 209 185 186
183 189 184 184 184 188 190 174 201 196 204 212 197 225 237 244 285 233 175 227 240 287 260 242 214 221 221 214 183 202 219 211 215 237 205 137 191 206 209 207 219 199 195
183 193 203 183 183 194 199 187 191 203 208 203 214 221 231 220 226 170 199 219 246 243 256 206 194 217 214 240 195 215 186 219 242 218 129 151 194 205 212 213 210 213 204
188 193 200 191 187 208 191 201 212 205 203 227 182 219 198 229 164 277 213 208 202 232 235 245 224 214 230 237 235 242 211 190 227 234 145 164 190 202 212 215 215 220 209
188 193 193 201 195 198 226 200 210 255 196 223 184 209 243 241 223 157 308 239 266 173 214 237 233 221 215 227 213 216 242 209 191 250 217 168 196 210 212 213 217 219 225
192 192 195 198 196 202 206 216 213 225 236 229 233 210 213 247 224 181 213 236 234 20 165 226 223 222 242 222 223 216 238 245 184 217 242 169 193 206 212 213 217 219 223
194 190 198 199 197 202 207 203 222 230 221 230 227 211 221 220 220 244 216 175 232 156 212 185 229 220 229 220 223 223 229 223 236 209 220 237 174 201 212 220 222 221 222
204 196 201 200 203 197 205 208 221 223 240 226 231 223 210 226 237 226 239 214 165 217 212 184 230 223 228 250 222 222 235 228 210 209 220 216 237 210 196 215 222 223 223
203 199 195 201 215 204 201 209 219 228 229 242 233 233 205 226 228 240 243 249 224 236 217 219 188 204 200 227 263 229 214 239 231 212 212 211 224 219 237 182 209 221 224
199 213 206 204 211 206 203 206 216 226 231 230 248 237 234 237 229 233 245 237 234 226 202 208 245 190 252 204 261 228 229 222 229 238 223 218 219 207 211 234 186 211 218
210 205 209 202 193 207 205 204 207 217 220 213 234 241 241 234 235 230 237 227 232 234 224 195 208 213 233 218 246 253 219 229 233 234 230 228 233 203 227 206 235 241 189
210 216 211 217 208 207 210 215 219 217 224 208 225 247 242 251 235 233 215 227 218 239 216 228 227 232 230 229 258 261 251 211 218 229 226 241 230 233 225 217 225 231 246
212 210 217 216 216 212 223 212 209 227 231 220 239 232 234 233 241 235 233 238 205 244 188 223 229 218 221 236 224 264 287 283 219 178 227 230 236 239 241 239 222 220 227
212 213 213 217 214 212 208 216 212 224 215 229 211 241 260 250 243 243 243 226 225 238 222 222 224 244 209 244 209 191 240 272 325 251 208 294 250 245 252 245 237 222 223
195 206 206 217 216 225 208 229 224 224 247 228 221 245 228 259 257 250 247 233 224 235 216 235 244 217 236 234 240 252 238 258 225 238 283 232 210 220 254 234 239 233 227
196 204 201 205 211 211 209 207 205 207 251 243 216 245 235 240 255 243 244 242 231 231 236 223 229 231 245 260 287 248 243 262 244 241 261 270 258 292 292 278 271 241 244